Weather History for KGCN - April, 2013

Change the Weather History Date:

Monday, April 8, 2013

  Actual Average Record
Temperature  
Mean Temperature 40 °F -  
Max Temperature 50 °F 53 °F 74 °F (1988)
Min Temperature 30 °F 22 °F 14 °F (1983)
Degree Days  
Heating Degree Days 25    
Moisture  
Dew Point 29 °F    
Average Humidity 75    
Maximum Humidity 93    
Minimum Humidity 42    
Precipitation  
Precipitation 0.08 in - - ()
Sea Level Pressure  
Sea Level Pressure 29.45 in    
Wind  
Wind Speed 14 mph (WSW)    
Max Wind Speed 29 mph    
Max Gust Speed 46 mph    
Visibility 7 miles    
Events Fog , Snow    
Averages and records for this station are not official NWS values.
T = Trace of Precipitation, MM = Missing Value Source: NWS Daily Summary

Daily Weather History Graph

Daily Weather History Graph

Search for Another Location

Airport or City:

Trip Planner

Search our weather history database for the weather conditions in past years. The results will help you decide how hot, cold, wet, or windy it might be!

Date:

Astronomy

Apr. 08, 2013 Rise Set
Actual Time 6:04 AM MST 6:56 PM MST
Civil Twilight 5:38 AM MST 7:22 PM MST
Nautical Twilight 5:07 AM MST 7:53 PM MST
Astronomical Twilight 4:36 AM MST 8:25 PM MST
Moon 4:54 AM MST (4/8) 5:36 PM MST (4/8)
Length of Visible Light 13h 44m
Length of Day
12h 51m
Waning Crescent, 3% of the Moon is Illuminated
Apr 8
Waning Crescent
Apr 10
New
Apr 18
First Quarter
Apr 25
Full
May 2
Last Quarter

Hourly Weather History & Observations

Time (MST) Temp. Windchill Dew Point Humidity Pressure Visibility Wind Dir Wind Speed Gust Speed Precip Events Conditions
12:54 AM 44.1 °F 38.6 °F 24.1 °F 45% 29.58 in 10.0 mi South 10.4 mph - N/A   Clear
1:54 AM 46.0 °F 39.9 °F 25.0 °F 44% 29.53 in 10.0 mi South 13.8 mph 21.9 mph N/A   Clear
2:54 AM 46.0 °F 40.2 °F 25.0 °F 44% 29.49 in 10.0 mi South 12.7 mph - N/A   Clear
3:54 AM 46.0 °F 39.9 °F 27.0 °F 47% 29.46 in 10.0 mi South 13.8 mph 19.6 mph N/A   Clear
4:54 AM 46.0 °F 39.6 °F 28.0 °F 50% 29.41 in 10.0 mi South 15.0 mph 23.0 mph N/A   Clear
5:54 AM 45.0 °F 37.4 °F 30.0 °F 56% 29.38 in 10.0 mi South 18.4 mph 26.5 mph N/A   Clear
6:54 AM 46.0 °F 38.8 °F 32.0 °F 58% 29.37 in 10.0 mi South 18.4 mph 27.6 mph N/A   Overcast
7:54 AM 46.9 °F - 32.0 °F 56% 29.36 in 10.0 mi SSW 21.9 mph 33.4 mph N/A   Mostly Cloudy
8:54 AM 50.0 °F - 30.9 °F 48% 29.29 in 10.0 mi SSW 25.3 mph 42.6 mph N/A   Mostly Cloudy
9:54 AM 50.0 °F - 28.9 °F 44% 29.28 in 10.0 mi SSW 27.6 mph 46.0 mph N/A   Mostly Cloudy
10:54 AM 48.0 °F - 26.1 °F 42% 29.28 in 10.0 mi SSW 28.8 mph 44.9 mph N/A   Mostly Cloudy
11:26 AM 35.6 °F 25.5 °F 30.2 °F 81% 29.46 in 1.5 mi WSW 17.3 mph 42.6 mph 0.00 in Snow Light Snow
11:28 AM 35.6 °F 26.6 °F 30.2 °F 81% 29.46 in 1.2 mi WSW 13.8 mph 42.6 mph 0.00 in Snow Light Snow
11:31 AM 33.8 °F 23.9 °F 30.2 °F 87% 29.46 in 0.8 mi WSW 15.0 mph 33.4 mph 0.00 in Snow Light Snow
11:36 AM 33.8 °F 22.8 °F 30.2 °F 87% 29.46 in 0.2 mi West 18.4 mph 35.7 mph 0.00 in Fog , Snow Snow
11:54 AM 32.0 °F 20.8 °F 30.0 °F 92% 29.38 in 0.2 mi West 17.3 mph 27.6 mph 0.00 in Fog , Snow Snow
12:22 PM 30.2 °F 18.5 °F 28.4 °F 93% 29.46 in 0.5 mi SW 17.3 mph 29.9 mph 0.00 in Fog , Snow Snow
12:31 PM 30.2 °F 18.9 °F 28.4 °F 93% 29.46 in 1.0 mi SW 16.1 mph 21.9 mph 0.00 in Snow Light Snow
12:33 PM 30.2 °F 19.8 °F 28.4 °F 93% 29.46 in 2.5 mi SW 13.8 mph 21.9 mph 0.00 in Snow Light Snow
12:40 PM 32.0 °F 21.6 °F 28.4 °F 87% 29.46 in 9.0 mi SW 15.0 mph - 0.00 in   Mostly Cloudy
12:54 PM 33.1 °F 23.9 °F 30.9 °F 92% 29.37 in 10.0 mi SW 12.7 mph - 0.01 in   Mostly Cloudy
1:54 PM 42.1 °F 32.1 °F 28.9 °F 60% 29.31 in 10.0 mi WSW 25.3 mph 39.1 mph 0.07 in   Overcast
2:54 PM 39.9 °F 30.0 °F 27.0 °F 60% 29.33 in 10.0 mi WSW 21.9 mph 32.2 mph N/A   Overcast
3:54 PM 42.1 °F 33.9 °F 28.0 °F 58% 29.35 in 10.0 mi West 17.3 mph 38.0 mph N/A   Mostly Cloudy
4:54 PM 41.0 °F 33.5 °F 25.0 °F 53% 29.36 in 10.0 mi WSW 13.8 mph 21.9 mph N/A   Overcast
5:54 PM 39.0 °F 34.0 °F 25.0 °F 57% 29.40 in 10.0 mi West 6.9 mph 16.1 mph N/A   Mostly Cloudy
6:14 PM 35.6 °F 26.6 °F 28.4 °F 75% 29.53 in 2.5 mi West 13.8 mph 29.9 mph 0.00 in Snow Light Snow
6:19 PM 33.8 °F 23.9 °F 28.4 °F 81% 29.53 in 1.2 mi West 15.0 mph 29.9 mph 0.00 in Snow Light Snow
6:23 PM 33.8 °F 27.0 °F 28.4 °F 81% 29.53 in 1.5 mi West 8.1 mph 29.9 mph 0.00 in Snow Light Snow
6:50 PM 32.0 °F 23.6 °F 28.4 °F 87% 29.54 in 0.8 mi WSW 10.4 mph 19.6 mph 0.00 in Snow Light Snow
6:54 PM 32.0 °F 24.2 °F 28.9 °F 88% 29.44 in 0.8 mi WSW 9.2 mph 19.6 mph 0.00 in Snow Light Snow
6:59 PM 32.0 °F 24.8 °F 28.4 °F 87% 29.54 in 1.5 mi WSW 8.1 mph 19.6 mph 0.00 in Snow Light Snow
7:01 PM 32.0 °F 24.2 °F 28.4 °F 87% 29.54 in 3.0 mi WSW 9.2 mph 19.6 mph 0.00 in Snow Light Snow
7:16 PM 32.0 °F 26.4 °F 28.4 °F 87% 29.53 in 10.0 mi WSW 5.8 mph - 0.00 in   Scattered Clouds
7:54 PM 30.9 °F 25.2 °F 28.0 °F 89% 29.44 in 10.0 mi WSW 5.8 mph - 0.00 in   Partly Cloudy
8:10 PM 32.0 °F 24.8 °F 28.4 °F 87% 29.53 in 10.0 mi West 8.1 mph - N/A   Mostly Cloudy
8:28 PM 32.0 °F 24.2 °F 28.4 °F 87% 29.53 in 1.8 mi WSW 9.2 mph - 0.00 in Snow Light Snow
8:40 PM 32.0 °F 27.5 °F 30.2 °F 93% 29.54 in 3.0 mi Variable 4.6 mph - 0.00 in Snow Light Snow
8:54 PM 32.0 °F 25.6 °F 30.0 °F 92% 29.43 in 6.0 mi WSW 6.9 mph - 0.00 in Snow Light Snow
9:30 PM 32.0 °F 25.6 °F 30.2 °F 93% 29.53 in 10.0 mi WNW 6.9 mph - N/A   Overcast
9:54 PM 32.0 °F 26.4 °F 28.9 °F 88% 29.41 in 10.0 mi Variable 5.8 mph - N/A   Overcast
10:54 PM 32.0 °F 28.7 °F 28.9 °F 88% 29.42 in 9.0 mi Variable 3.5 mph - 0.00 in   Overcast
11:07 PM 32.0 °F - 28.4 °F 87% 29.53 in 6.0 mi Calm Calm - N/A   Overcast
11:15 PM 32.0 °F 28.7 °F 28.4 °F 87% 29.53 in 8.0 mi NW 3.5 mph - N/A   Overcast
11:46 PM 32.0 °F 27.5 °F 28.4 °F 87% 29.53 in 10.0 mi West 4.6 mph - N/A   Overcast
11:54 PM 32.0 °F 27.5 °F 28.0 °F 85% 29.49 in 10.0 mi West 4.6 mph - N/A   Overcast